Tracking 27420 objects as of 29-May-2023
HD Live streaming from Space Station
objects crossing your sky now

CZ-2C R/B

Track CZ-2C R/B now!
10-day predictions


NORAD ID: 37731
Int'l Code: 2011-030B
Perigee: 607.4 km
Apogee: 690.7 km
Inclination: 97.7 °
Period: 97.6 minutes
Semi major axis: 7020 km
RCS: 8.527 m2 (large)
Launch date: July 6, 2011
Source: People's Republic of China (PRC)
Launch site: Jiuquan Satellite Launch Center, China (JSC)

Note: This is a ROCKET BODY
Your satellite tracking list
Your tracking list is empty




NASA's NSSDC Master Catalog

Two Line Element Set (TLE):
1 37731U 11030B   23148.52499313  .00001450  00000-0  21176-3 0  9990
2 37731  97.7125 123.2734 0059326  51.5968  61.2224 14.76012582639938
Source of the keplerian elements: AFSPC